Showing default

HAWK-B, 43794

Orbit data source: Space-Track

HAWK-B, 43794 is a payload satellite owned by HawkEye 360 (US) in SSO that was launched on Mon, 03 Dec 2018 UTC via an FALCON 9 launch vehicle from the Air Force Western Test Range (AFWTR). Payloads include a variety of satellites, spacecraft, and rockets equipped with specific instruments for various scientific and technological missions. These include communications satellites like Starlink; space stations such as the ISS; scientific satellites like the Hubble; Earth observation satellites from companies like Planet Labs, Umbra, and HawkEye 360; GPS; miniature CubeSats for education and research; and military/defense satellites.

Loading next visibility...
HAWK-B details
Identifier
43794, 2018-099AN
Orbit
SSO
Last TLE update9 hours ago
Origin
Flag of USHawkEye 360 (US)
ManufacturerUTIAS-SFL
MissionOperational Commercial Sigint
Bus & MotorNEMO-V1, Unknown motor
Mass12.75 kg wet, 12 kg dry
Launch date (UTC)
2018-12-03 (6 years ago)
Launch vehicle
FALCON 9
Launch site
Air Force Western Test Range (AFWTR)
Object type
Payload
Rocket body
Debris
Shape & HBRBox + 2 Pan, 1 m
Radar Cross Section0.348 m², Medium (>0.1 m² and < 1m²)

Expand to show TLE details & history

TLE from 9 hours ago
0 HAWK-B
1 43794U 18099AN  24361.15250360  .00009454  00000-0  63926-3 0  9993
2 43794  97.4736  52.5735 0008830 358.2952   1.8244 15.06722196331505
Epoch: 2024-12-26T03:39Z
Definitive object data (Epoch: 2024-12-26T03:39:36.311Z)
Latitude-0.00001°
Longitude-97.46379°
Altitude543.182 km
Speed7.594 km/s
True Right ascension03h 30m 17s
True Declination0° 00' 00"
Sunlit
Object was in full shadow at TLE epoch
Visualization TLE readout
Latitude-15.86477°
Longitude80.76862°
Altitude558.449 km
Speed7.578 km/s
Apparent Right ascension18h 28m 49s
Apparent Declination-47° 47' 40"
Sunlit
Object is in daylight
Visualization observer readout
Local Sidereal Time11:51:16
Azimuth126.91° SE
Elevation-34.011°
Doppler factor1
Orbital elements
Apogee altitude549.322 km
Perigee altitude537.099 km
Semi-major axis6,921.348 km
Eccentricity0.000883
Inclination97.4736°
RAAN52.5735°
Arg. of periapsis358.2952°
True anomaly1.82762°
Mean anomaly1.8244°
Eccentric anomaly1.82601°
Mean motion3.76927 °/min
BSTAR0.00063926
Orbital period95.51 mins
Loading maneuver chart data...
Loading historical data...
Loading historical data...
Loading historical data...
Loading historical data...
Loading historical data...
Loading historical data...
Loading historical data...

HAWK-B Visibility forecast

Observer location: undefined°, undefined

Span
Click to sort rows by Start time (UTC) header in descending order
Start Az.
Max El. time (UTC)
Max El. Az.
Max El.
End time (UTC)
End Az.
6 mins2024-12-26 16:58:45.069Z350.535° N2024-12-26 17:01:45.069Z270.568° WNW32.973°2024-12-26 17:04:45.069Z217.787° SW
5 mins2024-12-27 03:42:45.069Z166.655° S2024-12-27 03:44:45.069Z40.511° NE44.997°2024-12-27 03:47:45.069Z348.131° N
|